Regional Weather Roundup
Issued by NWS

Home | Current Version | Previous Version | Text Only | Print | Product List | Glossary Off
Versions: 1 2 3 4 5 6 7 8 9 10 11 12 13 14 15 16 17 18 19 20 21 22 23 24 25 26 27 28 29 30 31 32 33 34 35 36 37 38 39 40 41 42 43 44 45 46 47 48 49 50

000
ASUS44 KMEG 040300
RWRTN
TENNESSEE HOURLY STATE WEATHER ROUNDUP
NATIONAL WEATHER SERVICE MEMPHIS TN
1000 PM CDT FRI JUL 03 2015

TNZ002-004-019-021-049-052-054-088>092-040400-
WEST TENNESSEE

CITY           SKY/WX    TMP DP  RH WIND       PRES   REMARKS
MEMPHIS INTL   MOCLDY    73  69  87 SW10      29.92R
NWS MEMPHIS      N/A     74 N/A N/A MISG        N/A
JACKSON        MOCLDY    73  70  90 S7        29.90R
DYERSBURG        N/A    N/A N/A N/A MISG        N/A
PARIS          PTCLDY    70  68  94 CALM      29.91R
LEXINGTON      CLOUDY    72  70  94 S6        29.91R
$$

TNZ008-025-027-028-033-062-065-066-040400-
NORTH MIDDLE TENNESSEE

CITY           SKY/WX    TMP DP  RH WIND       PRES   REMARKS
NASHVILLE      CLOUDY    74  69  85 SW3       29.94R
CLARKSVILLE    CLOUDY    73  68  84 S5        29.91R
COOKEVILLE     CLOUDY    72  68  88 SW5       29.96R
CROSSVILLE     CLOUDY    69  64  84 SW3       30.01R
$$

TNZ061-075-076-078-094-096-097-040400-
SOUTH MIDDLE TENNESSEE

CITY           SKY/WX    TMP DP  RH WIND       PRES   REMARKS
FAYETTEVILLE   MOCLDY    68  66  94 S5        29.98S
TULLAHOMA      CLOUDY    68  66  94 S3        29.99R
WINCHESTER     CLOUDY    70  66  88 S5        29.99R
COLUMBIA       CLOUDY    72  70  94 VRB3      29.93R
SHELBYVILLE    CLOUDY    72  70  94 S6          N/A
$$

TNZ017-018-042-046-047-040400-
NORTHEAST TENNESSEE

CITY           SKY/WX    TMP DP  RH WIND       PRES   REMARKS
TRI CITIES     CLOUDY    71  67  87 SW12      29.96S
ELIZABETHTON   CLOUDY    70  64  83 W6        29.98R
$$

TNZ012-013-036-069-073-074-040400-
CENTRAL EAST TENNESSEE

CITY           SKY/WX    TMP DP  RH WIND       PRES   REMARKS
KNOXVILLE      CLOUDY    72  66  81 SW12      29.96R
OAK RIDGE      MOCLDY    73  66  78 SW3       29.97R
GATLINBURG     MOCLDY    72  64  78 SW8       29.97R
$$

TNZ083-085-099-040400-
SOUTHEAST TENNESSEE

CITY           SKY/WX    TMP DP  RH WIND       PRES   REMARKS
CHATTANOOGA    LGT RAIN  73  66  78 W3        29.99R
$$

SKY/WX REPORTED AS FAIR MEANS FEW OR NO CLOUDS BELOW
12 THOUSAND FEET.



USA.gov is the U.S. government's official web portal to all federal, state and local government web resources and services.